Location: Centerville
(32.8776°N, 96.6203°W)
Time: 02:19:04
(UTC+00:00)

Cosmos 2333 Rocket - Pass Details

Date: 17 June 2021
Orbit: 841 x 861 km, 70.8° (Epoch: 27 July)

Event Time Altitude Azimuth Distance (km) Brightness Sun altitude
Exits shadow 03:56:42 53° 124° (SE) 1,050 2.3 -23.2°
Maximum altitude 03:57:09 54° 107° (ESE) 1,034 2.3 -23.3°
Drops below altitude 10° 04:02:43 10° 31° (NNE) 2,492 4.9 -24.0°
Sets 04:05:13 0° 27° (NNE) 3,428 5.7 -24.3°
